Location: Orange
(33.2833°S, 149.1000°E)
Time: 18:14:11
(UTC+11:00)

ISS - Visible Passes

Search period start: 01 December 2021 00:00
Search period end: 11 December 2021 00:00
Orbit: 417 x 423 km, 51.6° (Epoch: 01 December)

Date Brightness Start Highest point End Pass type
(mag) Time Alt. Az. Time Alt. Az. Time Alt. Az.
01 Dec -1.4 03:02:05 24° SSE 03:02:05 24° SSE 03:03:47 10° SSE visible
02 Dec -0.3 02:16:29 12° SE 02:16:29 12° SE 02:16:46 10° SE visible
02 Dec -0.8 03:50:15 10° SW 03:50:42 10° SSW 03:51:11 10° SSW visible
03 Dec -1.0 03:03:47 14° SSW 03:03:47 14° SSW 03:05:20 10° S visible
04 Dec -0.4 02:18:05 13° SSE 02:18:05 13° SSE 02:18:42 10° SSE visible
